Location: Malvern Link
(52.1333°N, 2.3000°W)
Time: 07:12:50
(UTC+00:00)

QB50P2 - Pass Details

Date: 29 June 2022
Orbit: 590 x 605 km, 97.9° (Epoch: 15 August)

Event Time Altitude Azimuth Distance (km) Brightness Sun altitude
Rises 01:18:33 0° 18° (NNE) 2,860 ? -13.3°
Reaches altitude 10° 01:20:48 10° 24° (NNE) 1,954 ? -13.2°
Maximum altitude 01:24:55 48° 100° (E) 790 ? -13.0°
Enters shadow 01:28:02 17° 170° (S) 1,565 ? -12.8°
